Location: Cheching
(60.0667°N, 164.2167°W)
Time: 12:31:25
(UTC+00:00)

FENGYUN 1C DEB - Pass Details

Date: 30 September 2021
Orbit: 727 x 819 km, 99.4° (Epoch: 17 October)

Event Time Altitude Azimuth Distance (km) Brightness Sun altitude
Exits shadow 14:47:46 15° 296° (WNW) 1,942 ? -17.1°
Drops below altitude 10° 14:49:25 10° 314° (NW) 2,271 ? -16.9°
Sets 14:52:34 0° 335° (NNW) 3,216 ? -16.5°
